Location: Santa Barbara
(34.4500°N, 119.7700°W)
Time: 15:48:11
(UTC-08:00)

Cosmos 1892 Rocket - Visible Passes

Search period start: 03 December 2016 00:00
Search period end: 13 December 2016 00:00
Orbit: 606 x 634 km, 82.5° (Epoch: 02 December)

Date Brightness Start Highest point End Pass type
(mag) Time Alt. Az. Time Alt. Az. Time Alt. Az.
04 Dec 6.4 05:31:43 10° NE 05:34:26 16° ENE 05:37:08 10° ESE visible
05 Dec 5.6 05:48:21 10° NNE 05:52:17 30° ENE 05:56:12 10° SE visible
05 Dec 5.8 18:16:40 10° SE 18:16:54 11° SE 18:16:54 11° SE visible
06 Dec 4.2 06:05:37 10° N 06:10:02 60° E 06:14:27 10° SSE visible
06 Dec 4.8 18:33:25 10° SSE 18:35:36 27° SSE 18:35:36 27° SSE visible
07 Dec 3.6 06:23:15 10° NNW 06:27:41 67° W 06:32:07 10° S visible
07 Dec 3.8 18:50:48 10° S 18:54:19 59° S 18:54:19 59° S visible
08 Dec 6.4 05:04:22 10° NNE 05:07:20 17° ENE 05:10:18 10° ESE visible
08 Dec 5.3 17:33:40 10° ESE 17:35:26 12° E 17:35:48 12° E visible
08 Dec 4.6 19:08:43 10° SSW 19:12:50 42° W 19:13:02 41° WNW visible
09 Dec 5.4 05:21:08 10° NNE 05:25:10 33° ENE 05:29:12 10° SE visible
09 Dec 4.6 17:49:21 10° SE 17:52:51 24° E 17:54:29 19° ENE visible
09 Dec 5.8 19:27:17 10° SW 19:30:37 21° WNW 19:31:44 20° NW visible
10 Dec 4.0 05:38:27 10° N 05:42:55 66° E 05:47:22 10° SSE visible
10 Dec 3.7 18:06:12 10° SSE 18:10:22 49° E 18:13:08 20° NNE visible
10 Dec 6.6 19:47:19 10° W 19:48:32 11° WNW 19:49:45 10° NW visible
11 Dec 3.6 05:56:09 10° NNW 06:00:34 60° W 06:04:58 10° S visible
11 Dec 3.6 18:23:39 10° S 18:27:59 80° W 18:31:45 14° N visible
12 Dec 6.2 04:37:04 10° NNE 04:40:15 19° ENE 04:43:26 10° ESE visible
12 Dec 4.4 06:14:14 10° NNW 06:18:08 30° W 06:22:01 10° SSW visible
12 Dec 4.9 18:41:39 10° SSW 18:45:42 38° W 18:49:49 10° N visible
